Location: Radomski Observatory
(40.2854°N, 79.5145°W)
Time: 21:26:50
(UTC-04:00)

Cosmos 1072 Rocket - Visible Passes

Search period start: 24 October 2014 00:00
Search period end: 02 November 2014 23:00
Orbit: 949 x 1009 km, 82.9° (Epoch: 23 October)

Date Brightness Start Highest point End Pass type
(mag) Time Alt. Az. Time Alt. Az. Time Alt. Az.
24 Oct 6.6 03:53:12 16° ESE 03:56:08 21° E 04:00:43 10° NE visible
24 Oct 4.5 05:38:05 32° SW 05:41:01 58° W 05:47:20 10° N visible
25 Oct 5.7 04:21:21 37° ESE 04:22:13 39° E 04:28:03 10° NNE visible
25 Oct 5.2 06:06:12 29° W 06:07:41 32° WNW 06:13:20 10° NNW visible
26 Oct 4.7 04:49:02 68° ENE 04:49:02 68° ENE 04:54:50 10° NNE visible
26 Oct 5.8 06:33:51 18° WNW 06:34:33 18° WNW 06:38:43 10° NNW visible
27 Oct 6.8 03:31:37 18° ENE 03:31:37 18° ENE 03:34:22 10° NE visible
27 Oct 4.9 05:16:25 50° NNW 05:16:25 50° NNW 05:21:16 10° N visible
28 Oct 6.4 03:58:50 25° NE 03:58:50 25° NE 04:01:50 10° NNE visible
28 Oct 5.5 05:43:38 29° NW 05:43:38 29° NW 05:47:20 10° N visible
29 Oct 6.1 04:25:55 28° NNE 04:25:55 28° NNE 04:28:42 10° NNE visible
29 Oct 6.1 06:10:42 16° NW 06:10:42 16° NW 06:12:51 10° NNW visible
30 Oct 6.1 04:52:53 24° N 04:52:53 24° N 04:55:10 10° N visible
31 Oct 7.1 03:34:59 13° NNE 03:34:59 13° NNE 03:35:36 10° NNE visible
31 Oct 6.3 05:19:46 17° NNW 05:19:46 17° NNW 05:21:18 10° N visible
01 Nov 6.9 04:01:48 14° NNE 04:01:48 14° NNE 04:02:32 10° NNE visible
01 Nov 6.6 05:46:35 11° NNW 05:46:35 11° NNW 05:46:56 10° NNW visible
02 Nov 6.8 03:28:34 13° N 03:28:34 13° N 03:29:04 10° N visible
